Location: Napier
(39.4830°S, 176.9170°E)
Time: 11:49:46
(UTC+13:00)

ISS - Visible Passes

Search period start: 22 October 2019 00:00
Search period end: 01 November 2019 00:00
Orbit: 411 x 421 km, 51.6° (Epoch: 21 October)

Date Brightness Start Highest point End Pass type
(mag) Time Alt. Az. Time Alt. Az. Time Alt. Az.
22 Oct -3.2 20:10:01 10° WNW 20:13:22 62° SW 20:16:45 10° SE visible
22 Oct -0.7 21:48:32 10° SW 21:50:39 15° SSW 21:52:48 10° SSE visible
23 Oct -1.1 20:59:17 10° WSW 21:01:51 20° SSW 21:04:27 10° SSE visible
23 Oct -0.4 22:38:42 10° SSW 22:39:39 11° S 22:39:40 11° S visible
24 Oct -1.5 20:10:09 10° W 20:13:05 27° SSW 20:16:04 10° SSE visible
24 Oct -0.6 21:49:29 10° SSW 21:50:45 12° S 21:52:00 10° SSE visible
25 Oct -0.8 21:00:08 10° SW 21:01:50 13° SSW 21:03:34 10° SSE visible
25 Oct -0.5 22:38:26 10° SSW 22:39:23 12° S 22:39:23 12° S visible
26 Oct -0.9 20:10:46 10° WSW 20:12:58 16° SSW 20:15:10 10° SSE visible
26 Oct -0.7 21:49:51 10° SSW 21:50:51 11° S 21:51:50 10° SSE visible
27 Oct -0.7 21:00:56 10° SSW 21:01:53 11° S 21:02:52 10° SSE visible
27 Oct -0.7 22:37:33 10° SSW 22:38:46 14° S 22:38:46 14° S visible
28 Oct -0.8 20:11:38 10° SSW 20:12:57 12° S 20:14:15 10° SSE visible
28 Oct -1.0 21:49:08 10° SSW 21:50:52 13° SSE 21:51:57 12° SSE visible
29 Oct -0.9 21:00:40 10° SSW 21:01:56 12° S 21:03:11 10° SSE visible
29 Oct -1.0 22:36:35 10° SSW 22:38:00 19° SSW 22:38:00 19° SSW visible
30 Oct -1.6 21:48:09 10° SSW 21:50:44 20° SSE 21:51:10 19° SSE visible
31 Oct -1.2 20:59:43 10° SSW 21:01:51 15° SSE 21:03:59 10° SE visible
31 Oct -1.3 22:35:44 10° SW 22:37:13 23° SW 22:37:13 23° SW visible
